User: anonymous   Login
Location: Iesi
(43.5167°N, 13.2333°E)
Time: 16:10:10
(UTC+00:00)
Language:

Cosmos 1666 Rocket - Orbit

View from above orbital plane
View from above orbital plane
View from above satellite
View from above satellite

Ground track
Ground track

The orbit data is extracted from the following two-line orbital elements,

1 15890U 85058B   20292.81354337 +.00000079 +00000-0 +66010-5 0  9992
2 15890 082.5297 199.2364 0021408 155.5844 263.4674 14.83444739884558
Epoch (UTC): 18 October 2020 19:31:30
Eccentricity: 0.0021408
inclination: 82.5297°
perigee height: 603 km
apogee height: 633 km
right ascension of ascending node: 199.2364°
argument of perigee: 155.5844°
revolutions per day: 14.83444739
mean anomaly at epoch: 263.4674°
orbit number at epoch: 88455

The dashed part of the orbit path shows where the satellite is in the earth's shadow,  

DLR